Погода в Кингисеппе

Погода в Кингисеппе : погода сейчас, прогноз погоды и архив. Всё, что Вы хотите узнать о погоде в Кингисеппе!

Поиск расширенной информации на нашем сайте:

Другие новости

Новости СМИ2

Главная страница сайта

Новости сайта

03.07.2017

Напоминаем, что на нашем специализированном сайте Метеоцентр.Азия вы можете получить высокодетализированные автоматические прогнозы погоды по пунктам России, СНГ и мира в авиационном формате (включающие направление и скорость ветра, видимость, явления погоды, количество и форму облачности, нижнюю и верхнюю границу облачности).


Погода в Кингисеппе - сегодня

Время (UTC), дата Ветер
(°,м/с) 
Видим.   Явления Облачность Т
(°С)
Тd
(°С)
f(%) Тe
(°С)
Pmin
(гПа)
dP
(гПа)
Po
(мм)
O2
(г/м3)
Тmin Tmax R s Состояние
почвы
15 09.12.17 170 (Ю) 10 км    10/10 840 м 
[Sc]
+1.9 -0.2 86 1003.4  0.8  751  300      0.0     
18 09.12.17 170 (Ю) 10 км    10/10 660 м 
[Sc]
+1.6 -0.6 85 +1  1003.9  0.5  751  301    +2.5  0.0     
21 09.12.17 140 (ЮВ) 10 км    10/10 700 м 
[Sc]
+1.2 +0.2 93 +1  1004.1  0.2  751  301           
00 10.12.17 140 (ЮВ) 10 км    10/10 270 м 
[St]
+0.7 +0.5 99 1003.6  -0.5  751  302           
03 10.12.17 120 (ЮВ) 4000 м  слаб. ливневой снег  9/9 210 м кучево-дожд. 
[Cb cap]
+0.3 +0.3 100 1002.2  -1.4  750  302  +0.3    0.0     
06 10.12.17 120 (ЮВ) 4000 м  слаб. ливневой снег [диам. отлож. мокр. снега 1 мм]  10/10 180 м кучево-дожд. 
[Cb cap]
+0.1 +0.1 100 +1  1000.5  -1.7  749  301  +0.1    0.3  равномерный
мокрый или
старый снег
100% 
09 10.12.17 150 (ЮВ) 4000 м  слаб. ливневой снег [диам. отлож. мокр. снега 3 мм]  10/10 120 м кучево-дожд. 
[Cb cap]
+0.1 +0.1 100 +1  1000.1  -0.3  748  301           
12 10.12.17 160 (Ю) 4000 м  слаб. ливневой снег [диам. отлож. мокр. снега 5 мм]  10/10 180 м кучево-дожд. 
[Cb cap]
+0.1 +0.1 100 +1  999.6  -0.5  748  301           
15 10.12.17 160 (Ю) 10 км  {ливн. осадки} [диам. отлож. мокр. снега 0 мм]  10/10 480 м 
[St]
-0.5 -0.5 100 1000  -0.4  748  302         
18 10.12.17 180 (Ю) 10 км  {ливн. осадки}  10/10 870 м 
[Sc]
-0.8 -0.8 100 1000.5  0.4  749  303    +0.2     
21 10.12.17 160 (Ю) 10 км    10/10 700 м 
[Sc]
-1.5 -1.8 98 -1  1001.5  0.9  749  304           
00 11.12.17 170 (Ю) 10 км    10/10 660 м 
[Sc]
-2.1 -2.1 100 -2  1001.5  749  304           
03 11.12.17 120 (ЮВ) 10 км    10/10 500 м 
[St]
-2 -3 93 -1  1001.4  -0.2  749  304  -2.2         
06 11.12.17 070 (В) 10 км    10/10 500 м 
[St]
-2.2 -3.1 94 -2  1001.8  0.5  749  305  -2.3      равномерный
сухой снег
100% 
09 11.12.17 090 (В) 10 км    10/10 660 м 
[Sc]
-1.9 -2.4 96 -1  1003.1  1.3  750  305           
12 11.12.17 110 (В) 10 км    10/10 600 м 
[Sc]
-1.6 -2.1 96 -1  1003.2  0.1  751  304           
15 11.12.17 100 (В) 10 км    10/10 360 м 
[St]
-2.5 -3.6 92 -4  1004  0.8  751  306           
18 11.12.17 150 (ЮВ) 10 км    10/10 270 м 
[St]
-3.7 -4.2 96 -6  1005.5  1.4  752  308    -1.6       
21 11.12.17 110 (В) 10 км    10/10 210 м 
[St]
-4 -4.2 99 -6  1004.5  -1  752  308           
00 12.12.17 130 (ЮВ) 10 км    10/10 210 м 
[St]
-3.9 -4 99 -7  1004.7  0.2  752  308           
03 12.12.17 140 (ЮВ) 10 км    10/10 180 м 
[St]
-3.3 -3.3 100 -6  1004.3  -1.5  751  307  -4.1         
06 12.12.17 130 (ЮВ) 10 км    10/10 210 м 
[St]
-2.5 -2.5 100 -5  1001.4  -2.8  749  305  -4.1      равномерный
сухой снег
100% 
09 12.12.17 130 (ЮВ) 5{11}  4000 м  слаб. ливневой снег  10/10 180 м кучево-дожд. 
[Cb cap]
-1.2 -1.2 100 -4  999  -2.4  747  303           
12 12.12.17 130 (ЮВ) 5-10{12}  10 км  слаб. дождь{ливн. осадки} [диам. гололёда 3 мм]  10/10 270 м 
[Frnb|Ns]
+0.2 +0.2 100 -3  994.6  -4.4  744  300           
15 12.12.17 160 (Ю) 4-10{12}  4000 м  слаб. дождь со снегом [диам. гололёда 0 мм]  10/10 300 м 
[Frnb|Ns]
+0.8 +0.8 100 -2  991.9  -2.6  742  298         
Время (UTC), дата Ветер
(°,м/с) 
Видим.   Явления Облачность Т
(°С)
Тd
(°С)
f(%) Тe
(°С)
Pmin
(гПа)
dP
(гПа)
Po
(мм)
O2
(г/м3)
Тmin Tmax R s Состояние
почвы

Для получения пояснительной информации подведите курсор к названию столбца.

ПОГОДА в Кингисеппе - архив

Всё, что Вы хотите узнать о погоде в Кингисеппе - удобно и подробно!

Выберите нужную дату (начиная с 1 января 2015* года) и нажмите кнопку "Найти".
Будут отображены архивные сводки погоды по пункту Кингисепп, начиная с указанной даты.


Отображать данные в формате CSV (для использования в таблицах Excel)


Внимание! Наш архив погоды предназначен исключительно для личного некоммерческого использования в познавательных целях. Если Вам необходимы официальные справки о состоянии погоды (для производственных, юридических, коммерческих и т.п. целей), обращайтесь в органы Росгидромета.

*Примечание: данная дата относится к архиву по метеостанциям СССР (Россия, СНГ, Балтия).
Архив по метеостанциям Зарубежной Европы и Азии (кроме Китая) хранится 10 дней, по другим регионам земного шара (Китай, Африка, Америка, Австралия, Океания) - 1 день.

Кингисепп - район местоположения метеостанции


Название, широта, долгота, высота метеостанции:
Кингисепп 59.4°ш. 28.6°д. 19 м над ур. моря [Российская Федерация]

Дополнительная информация

В oтличие oт бoльшинства пoгoдных сайтoв мы публикуем пoдрoбную метеoинфoрмацию в детальнoм прoфессиoнальнoм фoрмате.

Характеристики температуры и влажнoсти вoздуха измеряются на высoте 2 м в тени вдали oт зданий и деревьев.
Скoрoсть ветра измеряется на высoте 10 м (на урoвне рoста челoвека скoрoсть ветра ниже в 1.5-2 раза). Если метеoстанция нахoдится в гoрoде или в лесу, тo скoрoсть ветра занижена на 2-4 м/с пo сравнению с oткрытым местoм. Скoрoсть ветра над акватoриями крупных рек и oзёр, а также на вершинах хoлмoв на 2-5 м/с выше, чем в oбычных услoвиях.
Атмoсфернoе давление в разных тoчках местнoсти мoжет значительнo oтличаться oт давления на метеoстанции, в зависимoсти oт услoвий рельефа (при пoдъёме на 10 м давление пoнижается примернo на 1 мм рт.ст.).